Location: Gensac
(43.2177°N, 1.1313°E)
Time: 21:34:37
(UTC+00:00)

Cosmos 1898 Rocket - Pass Details

Date: 08 December 2025
Orbit: 749 x 779 km, 74.0° (Epoch: 21 January)

Event Time Altitude Azimuth Distance (km) Brightness Sun altitude
Exits shadow 05:42:35 23° 312° (NW) 1,590 4.6 -16.2°
Maximum altitude 05:45:19 41° 257° (WSW) 1,110 3.9 -15.7°
Drops below altitude 10° 05:50:12 10° 189° (S) 2,309 6.1 -14.9°
Sets 05:52:41 0° 182° (S) 3,235 7.0 -14.4°
